{"data":{"norad_id":65842,"intl_designator":"2025-221V","name":"STARLINK-35298","alt_names":[],"object_type":"PAYLOAD","status":"ACTIVE","operator":null,"country":"US","launch_date":"2025-09-29","launch_site_code":"AFWTR","launch_vehicle":null,"mission":null,"orbit_class":"UNKNOWN","rcs_meters":null,"size_class":null,"mass_kg":null,"dimensions":null,"purposes":["comms"],"wikipedia_slug":null,"has_3d_model":false,"image_url":null,"decayed_at":null,"tle_current":{"epoch":"2026-09-20T16:35:33.790848Z","epoch_age_seconds":89662,"freshness":"FRESH","line1":"1 65842U 25221V   26263.69136332  .00010646  00000+0  32576-3 0  9991","line2":"2 65842  53.1610 258.7059 0001804  79.4792 280.6414 15.34401640 54642","mean_motion":15.3440164,"eccentricity":0.0001804,"inclination_deg":53.161,"raan_deg":258.7059,"arg_perigee_deg":79.4792,"mean_anomaly_deg":280.6414,"bstar":0.00032576,"rev_number":5464,"period_min":93.847657774923,"perigee_km":461.46427908585,"apogee_km":463.93245248582,"semimajor_km":6840.8353657858,"source":"CELESTRAK","updated_at":"2026-09-21T09:00:35.722891Z"}}}